Location: Wells
(51.2093°N, 2.6446°W)
Time: 07:34:55
(UTC+00:00)

UNISAT 6 - Visible Passes

Search period start: 11 March 2026 00:00
Search period end: 21 March 2026 00:00
Orbit: 573 x 637 km, 97.8° (Epoch: 10 March)

Date Brightness Start Highest point End Pass type
(mag) Time Alt. Az. Time Alt. Az. Time Alt. Az.
11 Mar ? 02:21:23 12° N 02:21:23 12° N 02:21:46 10° N visible
12 Mar ? 02:34:01 14° N 02:34:01 14° N 02:34:40 10° N visible
13 Mar ? 02:46:38 16° N 02:46:38 16° N 02:47:30 10° N visible
14 Mar ? 02:59:15 17° N 02:59:15 17° N 03:00:17 10° N visible
15 Mar ? 01:35:00 10° NE 01:35:00 10° NE 01:35:14 10° NNE visible
15 Mar ? 03:11:50 18° N 03:11:50 18° N 03:13:01 10° NNW visible
16 Mar ? 01:47:35 13° NE 01:47:35 13° NE 01:48:35 10° NNE visible
16 Mar ? 03:24:25 19° NNW 03:24:25 19° NNW 03:25:42 10° NNW visible
17 Mar ? 02:00:10 16° NE 02:00:10 16° NE 02:01:41 10° NNE visible
17 Mar ? 03:37:01 19° NNW 03:37:01 19° NNW 03:38:20 10° NNW visible
18 Mar ? 02:12:44 20° NNE 02:12:44 20° NNE 02:14:39 10° N visible
18 Mar ? 03:49:35 19° NW 03:49:35 19° NW 03:50:55 10° NNW visible
19 Mar ? 02:25:17 24° NNE 02:25:17 24° NNE 02:27:31 10° N visible
19 Mar ? 04:02:08 18° NW 04:02:08 18° NW 04:03:26 10° NNW visible
20 Mar ? 02:37:51 29° NNE 02:37:51 29° NNE 02:40:19 10° N visible
20 Mar ? 04:14:41 16° NW 04:14:41 16° NW 04:15:52 10° NW visible
